Location: Newark
(49.5647°N, 8.2922°E)
Time: 08:08:20
(UTC+00:00)

Transit 2A - Pass Details

Date: 23 February 2020
Orbit: 597 x 961 km, 66.7° (Epoch: 28 March)

Event Time Altitude Azimuth Distance (km) Brightness Sun altitude
Rises 18:37:05 0° 326° (NW) 2,993 9.6 -16.7°
Reaches altitude 10° 18:39:55 10° 344° (NNW) 2,136 8.6 -17.1°
Maximum altitude 18:43:25 19° 31° (NNE) 1,666 7.5 -17.7°
Enters shadow 18:44:23 18° 46° (NE) 1,730 7.5 -17.8°
Drops below altitude 10° 18:47:09 10° 77° (ENE) 2,296 - -18.3°
Sets 18:50:20 0° 94° (E) 3,299 - -18.8°
